| time (UTC) | temp F | wind direction | speed MPH | gust MPH | rain 1hr in | rain 24hr in | rain mn in | humidity % | barometer mb |
| 20260503033705 | 58 | 140 | 3.0 | 7.0 | 0.03 | 0.27 | 0.10 | 94 | 1010.3 |
| 20260503033206 | 58 | 127 | 2.0 | 3.0 | 0.03 | 0.27 | 0.10 | 94 | 1010.4 |
| 20260503032705 | 58 | 133 | 2.0 | 3.0 | 0.03 | 0.27 | 0.10 | 94 | 1010.5 |
| 20260503031705 | 58 | 134 | 2.0 | 3.0 | 0.02 | 0.25 | 0.09 | 94 | 1010.9 |
| 20260503031206 | 58 | 136 | 3.0 | 5.0 | 0.02 | 0.25 | 0.09 | 94 | 1011.0 |
| 20260503030205 | 58 | 159 | 3.0 | 5.0 | 0.01 | 0.24 | 0.08 | 93 | 1011.1 |
| 20260503025705 | 58 | 159 | 3.0 | 3.0 | 0.00 | 0.24 | 0.07 | 93 | 1011.2 |
| 20260503025206 | 58 | 175 | 3.0 | 8.0 | 0.00 | 0.24 | 0.07 | 93 | 1011.3 |
| 20260503024706 | 58 | 163 | 5.0 | 8.0 | 0.00 | 0.24 | 0.07 | 94 | 1011.3 |
| 20260503023705 | 58 | 178 | 3.0 | 6.0 | 0.00 | 0.24 | 0.07 | 93 | 1011.3 |
| 20260503022206 | 58 | 164 | 5.0 | 10.0 | 0.00 | 0.24 | 0.07 | 93 | 1011.3 |
| 20260503021205 | 58 | 151 | 3.0 | 6.0 | 0.00 | 0.24 | 0.07 | 93 | 1011.1 |
| 20260503020705 | 58 | 164 | 3.0 | 6.0 | 0.00 | 0.24 | 0.07 | 93 | 1011.2 |
| 20260503015705 | 57 | 161 | 3.0 | 5.0 | 0.00 | 0.24 | 0.07 | 93 | 1011.2 |
| 20260503015205 | 57 | 170 | 2.0 | 5.0 | 0.00 | 0.24 | 0.07 | 93 | 1011.3 |
| 20260503013205 | 57 | 147 | 2.0 | 3.0 | 0.00 | 0.24 | 0.07 | 93 | 1011.2 |
| 20260503012705 | 57 | 153 | 2.0 | 3.0 | 0.00 | 0.24 | 0.07 | 93 | 1011.1 |
| 20260503012205 | 57 | 147 | 2.0 | 3.0 | 0.00 | 0.24 | 0.07 | 92 | 1011.1 |
| 20260503011705 | 57 | 145 | 2.0 | 3.0 | 0.00 | 0.24 | 0.07 | 92 | 1011.1 |
| 20260503011205 | 57 | 118 | 2.0 | 3.0 | 0.00 | 0.24 | 0.07 | 92 | 1011.1 |
| 20260503010705 | 57 | 141 | 2.0 | 6.0 | 0.00 | 0.24 | 0.07 | 92 | 1011.2 |
| 20260503010205 | 57 | 122 | 3.0 | 6.0 | 0.00 | 0.24 | 0.07 | 92 | 1011.3 |
| 20260503005705 | 57 | 134 | 2.0 | 6.0 | 0.00 | 0.24 | 0.07 | 92 | 1011.3 |
| 20260503005205 | 57 | 128 | 3.0 | 8.0 | 0.00 | 0.24 | 0.07 | 92 | 1011.3 |
| 20260503004205 | 58 | 109 | 5.0 | 8.0 | 0.00 | 0.24 | 0.07 | 92 | 1011.3 |
| 20260503003705 | 58 | 116 | 6.0 | 9.0 | 0.00 | 0.24 | 0.07 | 92 | 1011.3 |
| 20260503002705 | 58 | 115 | 5.0 | 8.0 | 0.00 | 0.24 | 0.07 | 92 | 1011.3 |
| 20260503002205 | 58 | 108 | 5.0 | 9.0 | 0.00 | 0.24 | 0.07 | 93 | 1011.4 |
| 20260503001705 | 58 | 111 | 4.0 | 8.0 | 0.00 | 0.24 | 0.07 | 92 | 1011.4 |
| 20260503001205 | 57 | 113 | 5.0 | 8.0 | 0.00 | 0.24 | 0.07 | 92 | 1011.5 |
| 20260503000705 | 57 | 107 | 5.0 | 8.0 | 0.00 | 0.24 | 0.07 | 92 | 1011.6 |
| 20260503000205 | 57 | 110 | 5.0 | 8.0 | 0.00 | 0.24 | 0.07 | 92 | 1011.7 |
| 20260502235705 | 57 | 116 | 3.0 | 6.0 | 0.00 | 0.24 | 0.07 | 93 | 1012.0 |
| 20260502234205 | 57 | 117 | 3.0 | 7.0 | 0.00 | 0.24 | 0.07 | 92 | 1012.1 |
| 20260502233706 | 57 | 136 | 3.0 | 6.0 | 0.00 | 0.24 | 0.07 | 92 | 1012.1 |
| 20260502233205 | 57 | 135 | 3.0 | 7.0 | 0.00 | 0.24 | 0.07 | 92 | 1012.0 |
| 20260502232705 | 57 | 117 | 5.0 | 7.0 | 0.01 | 0.24 | 0.07 | 92 | 1012.1 |
| 20260502232206 | 57 | 122 | 5.0 | 9.0 | 0.01 | 0.24 | 0.07 | 92 | 1012.1 |
| 20260502231705 | 57 | 117 | 5.0 | 8.0 | 0.02 | 0.24 | 0.07 | 92 | 1012.0 |
| 20260502231205 | 57 | 131 | 4.0 | 8.0 | 0.03 | 0.24 | 0.07 | 92 | 1012.3 |
| 20260502230205 | 57 | 128 | 4.0 | 7.0 | 0.06 | 0.24 | 0.07 | 92 | 1012.1 |
| 20260502225705 | 57 | 121 | 5.0 | 9.0 | 0.08 | 0.24 | 0.07 | 92 | 1012.1 |
| 20260502225205 | 57 | 115 | 5.0 | 8.0 | 0.09 | 0.24 | 0.07 | 92 | 1012.1 |
| 20260502224705 | 56 | 110 | 4.0 | 9.0 | 0.10 | 0.24 | 0.07 | 93 | 1012.1 |
| 20260502224205 | 56 | 103 | 3.0 | 9.0 | 0.12 | 0.24 | 0.07 | 92 | 1012.2 |
| 20260502223705 | 56 | 104 | 5.0 | 10.0 | 0.14 | 0.24 | 0.07 | 92 | 1012.2 |
| 20260502223205 | 56 | 117 | 6.0 | 10.0 | 0.16 | 0.24 | 0.07 | 92 | 1012.3 |
| 20260502222705 | 56 | 108 | 5.0 | 9.0 | 0.03 | 0.23 | 0.06 | 92 | 1012.3 |
| 20260502222205 | 56 | 90 | 3.0 | 9.0 | 0.06 | 0.23 | 0.06 | 91 | 1012.3 |
| 20260502221706 | 56 | 101 | 3.0 | 9.0 | 0.05 | 0.21 | 0.05 | 91 | 1012.4 |
| 20260502221205 | 56 | 94 | 6.0 | 12.0 | 0.04 | 0.20 | 0.04 | 90 | 1012.4 |
| 20260502220706 | 56 | 104 | 7.0 | 12.0 | 0.02 | 0.19 | 0.02 | 90 | 1012.9 |
| 20260502220205 | 56 | 96 | 5.0 | 10.0 | 0.01 | 0.17 | 0.01 | 89 | 1012.9 |
| 20260502215705 | 56 | 103 | 5.0 | 10.0 | 0.16 | 0.16 | 0.16 | 89 | 1013.0 |
| 20260502215204 | 57 | 110 | 3.0 | 6.0 | 0.15 | 0.15 | 0.15 | 88 | 1013.3 |
| 20260502214205 | 58 | 103 | 2.0 | 6.0 | 0.12 | 0.12 | 0.12 | 85 | 1013.8 |
| 20260502213705 | 58 | 102 | 2.0 | 3.0 | 0.10 | 0.10 | 0.10 | 83 | 1014.1 |
| 20260502213205 | 59 | 171 | 3.0 | 9.0 | 0.08 | 0.08 | 0.08 | 79 | 1014.5 |
| 20260502212705 | 60 | 185 | 7.0 | 12.0 | 0.03 | 0.03 | 0.03 | 75 | 1014.9 |
| 20260502212205 | 60 | 186 | 5.0 | 9.0 | 0.01 | 0.01 | 0.01 | 74 | 1014.9 |
| 20260502211705 | 60 | 217 | 7.0 | 14.0 | 0.00 | 0.00 | 0.00 | 74 | 1014.3 |
| 20260502210704 | 60 | 92 | 1.0 | 3.0 | 0.00 | 0.00 | 0.00 | 73 | 1012.7 |
| 20260502210204 | 60 | 81 | 1.0 | 3.0 | 0.00 | 0.00 | 0.00 | 73 | 1012.7 |
| 20260502205705 | 60 | 74 | 3.0 | 7.0 | 0.00 | 0.00 | 0.00 | 74 | 1012.7 |
| 20260502204704 | 60 | 64 | 5.0 | 9.0 | 0.00 | 0.00 | 0.00 | 75 | 1012.8 |
| 20260502203705 | 60 | 79 | 4.0 | 12.0 | 0.00 | 0.00 | 0.00 | 75 | 1013.1 |
| 20260502203205 | 60 | 67 | 1.0 | 3.0 | 0.00 | 0.00 | 0.00 | 74 | 1013.1 |
| 20260502202204 | 60 | 75 | 3.0 | 8.0 | 0.00 | 0.00 | 0.00 | 74 | 1013.2 |
| 20260502201705 | 60 | 115 | 2.0 | 3.0 | 0.00 | 0.00 | 0.00 | 73 | 1013.3 |
| 20260502201204 | 60 | 117 | 1.0 | 3.0 | 0.00 | 0.00 | 0.00 | 73 | 1013.3 |
| 20260502200705 | 60 | 65 | 2.0 | 3.0 | 0.00 | 0.00 | 0.00 | 74 | 1013.4 |
| 20260502200206 | 60 | 57 | 2.0 | 3.0 | 0.00 | 0.00 | 0.00 | 73 | 1013.3 |
| 20260502195705 | 60 | 62 | 2.0 | 3.0 | 0.00 | 0.00 | 0.00 | 72 | 1013.4 |
| 20260502194707 | 59 | 18 | 1.0 | 3.0 | 0.00 | 0.00 | 0.00 | 73 | 1013.4 |
| 20260502194208 | 59 | 15 | 1.0 | 3.0 | 0.00 | 0.00 | 0.00 | 75 | 1013.5 |
| 20260502193706 | 60 | 20 | 1.0 | 3.0 | 0.00 | 0.00 | 0.00 | 76 | 1013.4 |
| 20260502193206 | 59 | 69 | 1.0 | 3.0 | 0.00 | 0.00 | 0.00 | 77 | 1013.6 |
| 20260502192705 | 60 | 64 | 2.0 | 3.0 | 0.00 | 0.00 | 0.00 | 76 | 1013.5 |
| 20260502192205 | 60 | 63 | 0.0 | 2.0 | 0.00 | 0.00 | 0.00 | 75 | 1013.6 |
| 20260502191704 | 60 | 63 | 1.0 | 3.0 | 0.00 | 0.00 | 0.00 | 74 | 1013.6 |
| 20260502191207 | 60 | 59 | 1.0 | 3.0 | 0.00 | 0.00 | 0.00 | 73 | 1013.6 |
| 20260502190705 | 60 | 42 | 1.0 | 2.0 | 0.00 | 0.00 | 0.00 | 71 | 1013.6 |
| 20260502190205 | 60 | 38 | 1.0 | 2.0 | 0.00 | 0.00 | 0.00 | 70 | 1013.5 |
| 20260502184705 | 61 | 342 | 2.0 | 3.0 | 0.00 | 0.00 | 0.00 | 66 | 1013.6 |
| 20260502183705 | 62 | 349 | 1.0 | 3.0 | 0.00 | 0.00 | 0.00 | 66 | 1013.6 |
| 20260502183205 | 62 | 349 | 2.0 | 5.0 | 0.00 | 0.00 | 0.00 | 66 | 1013.7 |
| 20260502182205 | 63 | 351 | 2.0 | 3.0 | 0.00 | 0.00 | 0.00 | 65 | 1013.7 |
| 20260502181704 | 63 | 336 | 3.0 | 5.0 | 0.00 | 0.00 | 0.00 | 64 | 1013.7 |
| 20260502181205 | 64 | 333 | 3.0 | 5.0 | 0.00 | 0.00 | 0.00 | 62 | 1013.6 |
| 20260502180705 | 64 | 333 | 3.0 | 5.0 | 0.00 | 0.00 | 0.00 | 61 | 1013.6 |
| 20260502170204 | 67 | 359 | 3.0 | 5.0 | 0.00 | 0.00 | 0.00 | 60 | 1014.3 |
| 20260502164205 | 69 | 343 | 6.0 | 9.0 | 0.00 | 0.00 | 0.00 | 58 | 1014.6 |
| 20260502163704 | 69 | 353 | 6.0 | 9.0 | 0.00 | 0.00 | 0.00 | 57 | 1014.7 |
| 20260502163204 | 69 | 334 | 2.0 | 6.0 | 0.00 | 0.00 | 0.00 | 57 | 1014.8 |
| 20260502162704 | 69 | 351 | 5.0 | 8.0 | 0.00 | 0.00 | 0.00 | 56 | 1014.9 |
| 20260502161705 | 69 | 355 | 3.0 | 7.0 | 0.00 | 0.00 | 0.00 | 59 | 1014.9 |
| 20260502161204 | 70 | 0 | 4.0 | 8.0 | 0.00 | 0.00 | 0.00 | 56 | 1015.0 |
| 20260502160704 | 70 | 337 | 2.0 | 7.0 | 0.00 | 0.00 | 0.00 | 57 | 1015.0 |
| 20260502152207 | 71 | 358 | 5.0 | 9.0 | 0.00 | 0.00 | 0.00 | 55 | 1015.2 |
| 20260502151707 | 72 | 358 | 5.0 | 9.0 | 0.00 | 0.00 | 0.00 | 55 | 1015.2 |
| 20260502151207 | 72 | 348 | 6.0 | 12.0 | 0.00 | 0.00 | 0.00 | 55 | 1015.2 |
| 20260502150707 | 72 | 327 | 4.0 | 9.0 | 0.00 | 0.00 | 0.00 | 56 | 1015.3 |
| 20260502150207 | 74 | 336 | 2.0 | 6.0 | 0.00 | 0.00 | 0.00 | 54 | 1015.3 |
| 20260502130707 | 71 | 239 | 3.0 | 8.0 | 0.00 | 0.00 | 0.00 | 64 | 1016.5 |
| 20260502130207 | 71 | 282 | 2.0 | 8.0 | 0.00 | 0.00 | 0.00 | 64 | 1016.6 |
| 20260502123706 | 70 | 253 | 2.0 | 6.0 | 0.00 | 0.00 | 0.00 | 68 | 1016.8 |
| 20260502123207 | 71 | 247 | 2.0 | 7.0 | 0.00 | 0.00 | 0.00 | 67 | 1016.8 |
| 20260502122206 | 69 | 259 | 3.0 | 7.0 | 0.00 | 0.00 | 0.00 | 71 | 1016.9 |
| 20260502121708 | 69 | 234 | 2.0 | 5.0 | 0.00 | 0.00 | 0.00 | 72 | 1017.0 |
| 20260502121206 | 68 | 231 | 4.0 | 8.0 | 0.00 | 0.00 | 0.00 | 72 | 1017.0 |
| 20260502120707 | 68 | 234 | 5.0 | 10.0 | 0.00 | 0.00 | 0.00 | 72 | 1017.1 |
| 20260502120207 | 69 | 223 | 5.0 | 8.0 | 0.00 | 0.00 | 0.00 | 72 | 1017.1 |
| 20260502115706 | 69 | 241 | 3.0 | 6.0 | 0.00 | 0.00 | 0.00 | 73 | 1017.2 |
| 20260502115207 | 68 | 237 | 3.0 | 7.0 | 0.00 | 0.00 | 0.00 | 72 | 1017.2 |
| 20260502114207 | 68 | 224 | 6.0 | 12.0 | 0.00 | 0.00 | 0.00 | 73 | 1017.2 |
| 20260502113706 | 67 | 233 | 4.0 | 9.0 | 0.00 | 0.00 | 0.00 | 75 | 1017.3 |
| 20260502113207 | 67 | 247 | 5.0 | 8.0 | 0.00 | 0.00 | 0.00 | 75 | 1017.3 |
| 20260502112706 | 67 | 232 | 4.0 | 12.0 | 0.00 | 0.00 | 0.00 | 76 | 1017.4 |
| 20260502112206 | 67 | 230 | 3.0 | 7.0 | 0.00 | 0.00 | 0.00 | 77 | 1017.4 |
| 20260502111706 | 67 | 222 | 3.0 | 10.0 | 0.00 | 0.00 | 0.00 | 77 | 1017.4 |
| 20260502110707 | 67 | 222 | 2.0 | 5.0 | 0.00 | 0.00 | 0.00 | 77 | 1017.4 |
| 20260502105706 | 67 | 251 | 4.0 | 10.0 | 0.00 | 0.00 | 0.00 | 76 | 1017.5 |
| 20260502105206 | 67 | 232 | 5.0 | 12.0 | 0.00 | 0.00 | 0.00 | 74 | 1017.5 |
| 20260502104707 | 67 | 207 | 5.0 | 8.0 | 0.00 | 0.00 | 0.00 | 74 | 1017.5 |
| 20260502104206 | 67 | 221 | 5.0 | 12.0 | 0.00 | 0.00 | 0.00 | 75 | 1017.5 |
| 20260502103706 | 67 | 241 | 3.0 | 8.0 | 0.00 | 0.00 | 0.00 | 77 | 1017.5 |
| 20260502103206 | 67 | 217 | 5.0 | 9.0 | 0.00 | 0.00 | 0.00 | 76 | 1017.5 |
| 20260502102206 | 67 | 264 | 2.0 | 7.0 | 0.00 | 0.00 | 0.00 | 76 | 1017.5 |
| 20260502101707 | 67 | 261 | 2.0 | 9.0 | 0.00 | 0.00 | 0.00 | 76 | 1017.5 |
| 20260502101206 | 68 | 245 | 4.0 | 8.0 | 0.00 | 0.00 | 0.00 | 74 | 1017.6 |
| 20260502100707 | 68 | 217 | 3.0 | 8.0 | 0.00 | 0.00 | 0.00 | 76 | 1017.7 |
| 20260502100206 | 67 | 216 | 5.0 | 9.0 | 0.00 | 0.00 | 0.00 | 76 | 1017.7 |
| 20260502071206 | 60 | 208 | 0.0 | 0.0 | 0.00 | 0.00 | 0.00 | 83 | 1017.7 |
| 20260502070706 | 60 | 208 | 0.0 | 0.0 | 0.00 | 0.00 | 0.00 | 81 | 1018.0 |
| 20260502070207 | 60 | 208 | 0.0 | 1.0 | 0.00 | 0.00 | 0.00 | 80 | 1018.0 |
| 20260502065706 | 60 | 208 | 2.0 | 3.0 | 0.00 | 0.00 | 0.00 | 78 | 1018.1 |
| 20260502065206 | 60 | 226 | 1.0 | 5.0 | 0.00 | 0.00 | 0.00 | 78 | 1018.0 |
| 20260502064706 | 59 | 240 | 3.0 | 6.0 | 0.00 | 0.00 | 0.00 | 77 | 1018.0 |
| 20260502064206 | 59 | 211 | 1.0 | 3.0 | 0.00 | 0.00 | 0.00 | 77 | 1018.0 |
| 20260502063706 | 58 | 238 | 1.0 | 2.0 | 0.00 | 0.00 | 0.00 | 77 | 1018.0 |
| 20260502062705 | 58 | 227 | 2.0 | 5.0 | 0.00 | 0.00 | 0.00 | 76 | 1018.0 |
| 20260502062206 | 58 | 200 | 1.0 | 3.0 | 0.00 | 0.00 | 0.00 | 76 | 1017.9 |
| 20260502061706 | 57 | 192 | 2.0 | 3.0 | 0.00 | 0.00 | 0.00 | 76 | 1018.0 |
| 20260502061205 | 57 | 188 | 2.0 | 3.0 | 0.00 | 0.00 | 0.00 | 75 | 1017.9 |
| 20260502060705 | 57 | 199 | 3.0 | 6.0 | 0.00 | 0.00 | 0.00 | 75 | 1017.9 |
| 20260502060206 | 57 | 217 | 2.0 | 3.0 | 0.00 | 0.00 | 0.00 | 75 | 1017.9 |
| 20260502055705 | 57 | 223 | 2.0 | 3.0 | 0.00 | 0.00 | 0.00 | 75 | 1017.8 |
| 20260502055206 | 57 | 225 | 1.0 | 3.0 | 0.00 | 0.00 | 0.00 | 74 | 1017.8 |
| 20260502054706 | 56 | 231 | 2.0 | 3.0 | 0.00 | 0.00 | 0.00 | 75 | 1017.7 |
| 20260502054206 | 56 | 237 | 0.0 | 2.0 | 0.00 | 0.00 | 0.00 | 75 | 1017.8 |
| 20260502053706 | 55 | 240 | 1.0 | 3.0 | 0.00 | 0.00 | 0.00 | 77 | 1017.8 |
| 20260502053206 | 55 | 187 | 1.0 | 3.0 | 0.00 | 0.00 | 0.00 | 76 | 1017.7 |
| 20260502052205 | 54 | 167 | 1.0 | 3.0 | 0.00 | 0.00 | 0.00 | 77 | 1017.7 |
| 20260502051206 | 54 | 179 | 2.0 | 3.0 | 0.00 | 0.00 | 0.00 | 78 | 1017.7 |
| 20260502050207 | 54 | 188 | 2.0 | 3.0 | 0.00 | 0.00 | 0.00 | 77 | 1017.6 |
| 20260502045706 | 53 | 181 | 3.0 | 7.0 | 0.00 | 0.00 | 0.00 | 77 | 1017.8 |
| 20260502045205 | 53 | 196 | 4.0 | 6.0 | 0.00 | 0.00 | 0.00 | 77 | 1017.7 |
| 20260502044707 | 53 | 165 | 2.0 | 5.0 | 0.00 | 0.00 | 0.00 | 77 | 1017.5 |
| 20260502044205 | 53 | 147 | 2.0 | 3.0 | 0.00 | 0.00 | 0.00 | 79 | 1017.6 |
| 20260502043706 | 53 | 157 | 0.0 | 3.0 | 0.00 | 0.00 | 0.00 | 78 | 1017.6 |
| 20260502043206 | 53 | 160 | 1.0 | 3.0 | 0.00 | 0.00 | 0.00 | 79 | 1017.6 |
| 20260502042705 | 53 | 145 | 2.0 | 3.0 | 0.00 | 0.00 | 0.00 | 78 | 1017.7 |
| 20260502042206 | 53 | 151 | 2.0 | 3.0 | 0.00 | 0.00 | 0.00 | 78 | 1017.7 |
| 20260502041705 | 53 | 162 | 2.0 | 3.0 | 0.00 | 0.00 | 0.00 | 78 | 1017.7 |
| 20260502041206 | 53 | 168 | 1.0 | 3.0 | 0.00 | 0.00 | 0.00 | 77 | 1017.7 |
| 20260502040705 | 53 | 203 | 0.0 | 2.0 | 0.00 | 0.00 | 0.00 | 76 | 1017.7 |
| 20260502040205 | 53 | 203 | 1.0 | 3.0 | 0.00 | 0.00 | 0.00 | 77 | 1017.7 |
| 20260502035705 | 53 | 203 | 1.0 | 3.0 | 0.00 | 0.00 | 0.00 | 76 | 1017.7 |
| 20260502035205 | 53 | 159 | 2.0 | 3.0 | 0.00 | 0.00 | 0.00 | 76 | 1017.7 |
| 20260502034705 | 52 | 172 | 0.0 | 2.0 | 0.00 | 0.00 | 0.00 | 75 | 1017.7 |
| 20260502034205 | 53 | 172 | 1.0 | 2.0 | 0.00 | 0.00 | 0.00 | 74 | 1017.9 |